Location: Almena City Lake
(39.8850°N, 99.6804°W)
Time: 07:59:50
(UTC+00:00)

SKYMED 2 - Pass Details

Date: 18 February 2020
Orbit: 621 x 623 km, 97.9° (Epoch: 27 March)

Event Time Altitude Azimuth Distance (km) Brightness Sun altitude
Rises 00:38:19 0° 14° (NNE) 2,912 6.8 -4.9°
Reaches altitude 10° 00:40:31 10° 15° (NNE) 2,000 5.9 -5.3°
Maximum altitude 00:44:53 77° 102° (ESE) 643 3.5 -6.1°
Drops below altitude 10° 00:49:12 10° 189° (S) 1,984 6.4 -6.9°
Sets 00:51:23 0° 190° (S) 2,885 7.3 -7.3°
